Location: Colle Santa Colomba
(42.0333°N, 12.5667°E)
Time: 03:34:20
(UTC+00:00)

Cosmos 2360 Rocket - Pass Details

Date: 25 October 2021
Orbit: 832 x 846 km, 71.0° (Epoch: 28 November)

Event Time Altitude Azimuth Distance (km) Brightness Sun altitude
Rises 17:56:36 0° 209° (SSW) 3,373 5.7 -19.9°
Reaches altitude 10° 17:59:02 10° 211° (SSW) 2,445 5.0 -20.3°
Maximum altitude 18:04:38 71° 296° (WNW) 890 2.4 -21.4°
Drops below altitude 10° 18:10:18 10° 20° (NNE) 2,470 4.5 -22.4°
Enters shadow 18:11:29 - 22° (NNE) 2,921 4.8 -22.6°
